[[{"header":{"parameterUnit":"m.s-1","parameterCategory":1,"la1":30.2991,"la2":30.254,"lo1":-89.0895,"lo2":-89.0444,"dy":0.0017,"dx":0.0017,"nx":28,"ny":28,"refTime":"2024-07-04T21:00:00:Z","depth":0,"parameterNumber":2,"parameterNumberName":"U-component_of_WINDS"},"data":[0,0,0,0,0,0,0,0,0,0,0,0,0,0,0,0,0,0,0,0,0,0,0,0,0,0,0,0,0,0,0,0,0,0,0,0,0,0,0,0,0,0,0,0,0,0,0,0,0,0,0,0,0,0,0,0,0,0,4.62,4.6201,0,4.6337,4.6339,4.634,4.6274,4.627,4.6267,4.6263,4.6406,4.6413,4.642,0,0,0,0,0,0,0,0,0,0,0,0,0,4.588,4.5887,4.6199,4.6201,4.6203,4.6337,4.6339,4.6341,4.6274,4.627,4.6266,4.6262,4.6404,4.6412,4.642,0,0,0,0,0,0,0,0,0,0,0,0,0,4.6019,4.5889,4.6199,4.6186,4.6186,4.6337,4.6339,4.6341,4.6275,4.627,4.6265,4.626,4.6401,4.6411,4.6422,4.6593,0,0,4.6454,4.6459,0,0,0,0,0,0,0,0,4.6011,4.6031,4.6186,4.6187,4.6188,4.6283,4.6278,4.6426,4.6277,4.6242,4.6263,4.6257,4.6369,4.6382,4.642,4.66,4.6606,4.6455,4.6462,4.6466,4.6469,0,0,0,0,0,0,0,4.6001,4.6024,4.6254,4.6189,4.6189,4.6174,4.6187,4.6306,4.6334,4.6244,4.624,4.6257,4.6369,4.641,4.6423,4.6608,4.6455,4.6464,4.6471,4.6475,4.6937,4.6943,0,0,0,0,0,0,4.5992,4.6017,4.625,4.6258,4.6084,4.6184,4.6199,4.6258,4.6332,4.6338,4.6261,4.6253,4.6394,4.641,4.6427,4.6634,4.6466,4.6476,4.6482,4.6931,4.6938,4.6945,0,0,0,0,0,0,4.5986,4.6014,4.6244,4.6136,4.6164,4.6195,4.6261,4.6263,4.6304,4.6345,4.635,4.6298,4.6391,4.6412,4.6553,4.6638,4.6481,4.649,4.6924,4.6933,4.6941,4.7047,0,0,0,0,0,0,4.5977,4.6012,4.6077,4.6138,4.617,4.6367,4.6266,4.627,4.6322,4.6313,4.6381,4.6387,4.6388,4.6537,4.6563,4.6649,4.6499,4.6917,4.6928,4.6939,4.7037,4.7059,4.7078,0,0,0,0,0,4.5966,4.6102,4.6081,4.6109,4.6253,4.6372,4.639,4.6389,4.6329,4.6396,4.6422,4.6385,4.6624,4.6552,4.6581,4.6672,4.6911,4.6925,4.6938,4.7027,4.7054,4.7077,0,0,0,0,0,0,4.605,4.6109,4.6087,4.6246,4.6305,4.636,4.6444,4.6418,4.6494,4.6482,4.6477,4.6493,4.6639,4.6669,4.6588,4.6842,4.6759,4.6778,4.6817,4.6843,4.6863,4.6853,4.6508,0,0,0,0,0,4.6087,4.6179,4.6226,4.6362,4.6392,4.6413,4.6465,4.6459,4.6519,4.6543,4.658,4.664,4.6729,4.6788,4.6871,4.704,4.7054,4.7117,4.7138,4.7155,4.7172,4.7264,4.7292,4.6988,4.6988,4.6988,0,0,4.6165,4.6209,4.6267,4.638,4.6424,4.652,4.6434,4.6539,4.661,4.6559,4.6694,4.6723,4.679,4.6945,4.7016,4.6975,4.7259,4.7172,4.7185,4.7193,4.728,4.7309,4.7335,4.6997,4.6995,4.6994,0,0,4.6355,4.6398,4.6516,4.6562,4.663,4.6643,4.6671,4.6732,4.6749,4.6884,4.6848,4.6932,4.7085,4.7135,4.718,4.7389,4.7358,4.7417,4.7525,4.7615,4.7639,4.766,4.7735,4.7762,4.7434,4.7434,4.7434,0,4.6444,4.6585,4.658,4.6688,4.6739,4.6697,4.6817,4.6862,4.6955,4.6991,4.6944,4.7136,4.7178,4.7344,4.7395,4.7433,4.7466,4.7409,4.7635,4.7657,4.7676,4.7748,4.7776,4.7441,4.744,4.7439,4.7438,0,4.6691,4.679,4.6877,4.6967,4.7028,4.7141,4.7154,4.7216,4.7205,4.7223,4.7361,4.741,4.7503,4.7542,4.7532,4.7708,4.768,4.7635,4.7551,4.7712,4.7779,4.7807,4.745,4.7448,4.7446,4.7444,0,0,4.6938,4.7024,4.7056,4.7096,4.7168,4.7245,4.7356,4.7447,4.7501,4.7566,4.766,4.779,4.7748,4.78,4.7795,4.7874,4.8037,4.7818,4.782,4.7857,4.8233,4.8267,4.8299,4.8016,4.8021,4.8026,4.8228,0,4.7134,4.7329,4.7328,4.7508,4.76,4.7562,4.7659,4.7714,4.7734,4.7815,4.7837,4.7929,4.7867,4.7898,4.7974,4.8001,4.8112,4.7986,4.8104,4.8108,4.8088,4.8334,4.837,4.8559,4.8254,4.8258,4.8262,0,4.7389,4.7462,4.7651,4.771,4.7748,4.7836,4.7919,4.7996,4.8058,4.8067,4.8124,4.8107,4.8221,4.8134,4.8291,4.8206,4.8254,4.8274,4.8282,4.8293,4.8195,4.8352,4.8619,4.8647,4.8303,4.83,4.8297,0,4.7551,4.7696,4.7829,4.7864,4.7936,4.7998,4.8031,4.8087,4.8142,4.8215,4.825,4.8336,4.8383,4.845,4.8456,4.8392,4.8615,4.8528,4.8626,4.8626,4.8675,4.8672,4.8953,4.8706,4.8705,4.8705,4.8704,0,4.777,4.7887,4.7902,4.7984,4.8114,4.8112,4.8241,4.8269,4.8319,4.8406,4.8378,4.846,4.8463,4.8548,4.8554,4.8683,4.8704,4.8715,4.8715,4.8718,4.8717,4.8749,4.8737,4.8712,4.8711,4.8709,4.8708,0,4.7973,4.7988,4.8129,4.8186,4.8202,4.8296,4.8344,4.8422,4.8439,4.8549,4.8575,4.8602,4.8699,4.8712,4.8827,4.8831,4.8986,4.8973,4.8965,4.8963,4.906,4.9051,4.9373,4.9415,4.914,4.9143,4.9145,0,4.8112,4.8201,4.8267,4.8322,4.8359,4.8449,4.8504,4.8505,4.8564,4.8641,4.871,4.8804,4.888,4.9037,4.9068,4.9155,4.9143,4.925,4.9156,4.9156,4.9145,4.914,4.9149,4.9268,4.9271,4.9274,4.9276,0,4.8357,4.836,4.844,4.8525,4.8591,4.8658,4.872,4.8767,4.8776,4.8844,4.8943,4.9001,4.9118,4.9212,4.9298,4.9332,4.9307,4.9305,4.9332,4.9336,4.9328,4.9334,4.9015,4.9298,4.9296,4.9294,4.9293,4.9292,4.8533,4.861,4.8669,4.876,4.8806,4.8865,4.8941,4.8967,4.905,4.9144,4.914,4.9249,4.9308,4.9421,4.9461,4.9547,4.9512,4.9551,4.9561,4.9571,4.9581,4.9314,4.9563,4.9562,4.9561,4.9561,4.956,0,4.8776,4.8812,4.8895,4.8983,4.9055,4.9023,4.9091,4.9153,4.9249,4.9306,4.9381,4.9495,4.9586,4.9624,4.9713,4.9775,4.9765,4.9798,4.9794,4.9802,4.9607,4.9574,4.9804,4.9804,4.9804,4.9804,4.9804,4.9804,4.8912,4.9041,4.9051,4.9204,4.9239,4.9345,4.9386,4.944,4.9486,4.9614,4.9689,4.9713,4.9763,4.9856,4.9938,4.9947,4.9981,5.002,5.0023,4.984,4.9816,4.9792,4.9762,5.0027,5.0027,5.0211,5.0213,5.0214]},{"header":{"parameterUnit":"m.s-1","parameterCategory":1,"la1":30.2991,"la2":30.254,"lo1":-89.0895,"lo2":-89.0444,"dy":0.0017,"dx":0.0017,"nx":28,"ny":28,"refTime":"2024-07-04T21:00:00:Z","depth":0,"parameterNumber":3,"parameterNumberName":"V-component_of_WINDS"},"data":[0,0,0,0,0,0,0,0,0,0,0,0,0,0,0,0,0,0,0,0,0,0,0,0,0,0,0,0,0,0,0,0,0,0,0,0,0,0,0,0,0,0,0,0,0,0,0,0,0,0,0,0,0,0,0,0,0,0,-0.0959,-0.0959,0,-0.0948,-0.0948,-0.0948,-0.0958,-0.0958,-0.0959,-0.0959,-0.0944,-0.0943,-0.0942,0,0,0,0,0,0,0,0,0,0,0,0,0,-0.0985,-0.0985,-0.0959,-0.0959,-0.0959,-0.0948,-0.0948,-0.0948,-0.0958,-0.0958,-0.0959,-0.0959,-0.0944,-0.0943,-0.0942,0,0,0,0,0,0,0,0,0,0,0,0,0,-0.0974,-0.0984,-0.0959,-0.0962,-0.0963,-0.0948,-0.0948,-0.0948,-0.0958,-0.0958,-0.0959,-0.0959,-0.0945,-0.0943,-0.0942,-0.0923,0,0,-0.0939,-0.0938,0,0,0,0,0,0,0,0,-0.0975,-0.0973,-0.0962,-0.0962,-0.0962,-0.0955,-0.0952,-0.0939,-0.0957,-0.0959,-0.0959,-0.096,-0.0947,-0.0946,-0.0942,-0.0922,-0.0922,-0.0939,-0.0938,-0.0937,-0.0937,0,0,0,0,0,0,0,-0.0975,-0.0973,-0.0955,-0.0962,-0.0962,-0.0964,-0.0963,-0.095,-0.095,-0.0959,-0.096,-0.0959,-0.0947,-0.0943,-0.0942,-0.0921,-0.0939,-0.0938,-0.0937,-0.0936,-0.0885,-0.0885,0,0,0,0,0,0,-0.0976,-0.0974,-0.0955,-0.0954,-0.097,-0.0963,-0.0962,-0.0957,-0.095,-0.095,-0.0958,-0.0959,-0.0945,-0.0943,-0.0941,-0.0918,-0.0937,-0.0936,-0.0936,-0.0886,-0.0885,-0.0885,0,0,0,0,0,0,-0.0977,-0.0974,-0.0955,-0.0964,-0.0962,-0.0962,-0.0956,-0.0956,-0.0952,-0.0949,-0.0949,-0.0954,-0.0945,-0.0943,-0.0928,-0.0918,-0.0936,-0.0935,-0.0887,-0.0886,-0.0885,-0.0872,0,0,0,0,0,0,-0.0977,-0.0975,-0.0968,-0.0964,-0.0962,-0.0943,-0.0955,-0.0956,-0.0951,-0.0952,-0.0946,-0.0945,-0.0946,-0.093,-0.0927,-0.0917,-0.0934,-0.0888,-0.0886,-0.0885,-0.0873,-0.0871,-0.0868,0,0,0,0,0,-0.0978,-0.0963,-0.0967,-0.0965,-0.0953,-0.0942,-0.0941,-0.0943,-0.095,-0.0943,-0.0941,-0.0945,-0.092,-0.0928,-0.0925,-0.0914,-0.0888,-0.0887,-0.0885,-0.0874,-0.0871,-0.0869,0,0,0,0,0,0,-0.0964,-0.0963,-0.0967,-0.0951,-0.0947,-0.0944,-0.0935,-0.0939,-0.0932,-0.0933,-0.0935,-0.0933,-0.0917,-0.0914,-0.0923,-0.0895,-0.0905,-0.0903,-0.0898,-0.0895,-0.0892,-0.0893,-0.0933,0,0,0,0,0,-0.0959,-0.0952,-0.0951,-0.0936,-0.0934,-0.0935,-0.093,-0.0933,-0.0928,-0.0925,-0.0922,-0.0917,-0.0907,-0.0901,-0.0892,-0.0873,-0.0872,-0.0865,-0.0862,-0.086,-0.0858,-0.0848,-0.0845,-0.088,-0.088,-0.088,0,0,-0.0949,-0.0947,-0.0942,-0.0934,-0.0931,-0.0922,-0.0933,-0.0923,-0.0916,-0.0923,-0.0909,-0.0907,-0.0901,-0.0884,-0.0876,-0.0881,-0.0848,-0.0858,-0.0857,-0.0856,-0.0846,-0.0843,-0.084,-0.0879,-0.0879,-0.0879,0,0,-0.0925,-0.0923,-0.0912,-0.0909,-0.0905,-0.0906,-0.0903,-0.09,-0.0899,-0.0885,-0.0891,-0.0882,-0.0866,-0.0862,-0.0857,-0.0834,-0.0837,-0.0831,-0.0817,-0.0808,-0.0805,-0.0803,-0.0794,-0.0791,-0.0829,-0.0829,-0.0829,0,-0.0912,-0.09,-0.0904,-0.0894,-0.089,-0.0899,-0.0886,-0.0883,-0.0876,-0.0872,-0.0878,-0.0859,-0.0855,-0.0838,-0.0832,-0.0828,-0.0825,-0.0831,-0.0805,-0.0803,-0.0801,-0.0792,-0.0789,-0.0828,-0.0828,-0.0828,-0.0828,0,-0.0884,-0.0875,-0.0866,-0.0861,-0.0856,-0.0844,-0.0847,-0.0841,-0.0844,-0.0844,-0.083,-0.0827,-0.0818,-0.0814,-0.0816,-0.0796,-0.0799,-0.0805,-0.0815,-0.0796,-0.0788,-0.0785,-0.0827,-0.0827,-0.0827,-0.0827,0,0,-0.0849,-0.0848,-0.0844,-0.0842,-0.0839,-0.0832,-0.0821,-0.0814,-0.0809,-0.0804,-0.0795,-0.0782,-0.0788,-0.0783,-0.0785,-0.0776,-0.0758,-0.0783,-0.0783,-0.0778,-0.0736,-0.0731,-0.0727,-0.0761,-0.076,-0.076,-0.0736,0,-0.0825,-0.0807,-0.0812,-0.0794,-0.0786,-0.0794,-0.0785,-0.0782,-0.0782,-0.0775,-0.0774,-0.0765,-0.0774,-0.0771,-0.0763,-0.0762,-0.0749,-0.0764,-0.0751,-0.0751,-0.0751,-0.0723,-0.0717,-0.0695,-0.0733,-0.0733,-0.0732,0,-0.0794,-0.0789,-0.0771,-0.077,-0.0767,-0.0759,-0.0753,-0.0746,-0.0742,-0.0743,-0.0739,-0.0743,-0.0731,-0.0742,-0.0727,-0.0736,-0.0732,-0.0731,-0.073,-0.0728,-0.0739,-0.0719,-0.0688,-0.0684,-0.0728,-0.0728,-0.0728,0,-0.0769,-0.0759,-0.0747,-0.0745,-0.0744,-0.0738,-0.0737,-0.0734,-0.073,-0.0724,-0.0722,-0.0715,-0.071,-0.0705,-0.0706,-0.0714,-0.069,-0.0701,-0.069,-0.0689,-0.0683,-0.0683,-0.065,-0.0681,-0.0681,-0.0682,-0.0682,0,-0.0741,-0.0729,-0.0736,-0.0728,-0.0716,-0.0721,-0.0708,-0.0708,-0.0706,-0.0698,-0.0705,-0.0697,-0.0701,-0.0693,-0.0694,-0.0681,-0.0679,-0.0679,-0.0679,-0.0678,-0.0677,-0.0674,-0.0675,-0.0681,-0.0681,-0.0681,-0.0681,0,-0.0711,-0.0715,-0.0703,-0.0704,-0.0703,-0.0694,-0.0694,-0.0687,-0.0688,-0.0678,-0.0676,-0.0678,-0.0669,-0.0671,-0.0661,-0.0662,-0.0646,-0.0648,-0.0647,-0.0647,-0.0635,-0.0636,-0.0597,-0.0592,-0.0628,-0.0628,-0.0628,0,-0.0692,-0.0684,-0.0684,-0.068,-0.0679,-0.0672,-0.0669,-0.0674,-0.0669,-0.0666,-0.0659,-0.0651,-0.0645,-0.0631,-0.0631,-0.0624,-0.0626,-0.0613,-0.0624,-0.0624,-0.0625,-0.0625,-0.0624,-0.061,-0.0609,-0.0609,-0.0609,0,-0.0658,-0.0661,-0.0656,-0.0652,-0.0648,-0.0644,-0.0641,-0.0637,-0.0642,-0.0637,-0.0629,-0.0625,-0.0616,-0.0608,-0.0602,-0.06,-0.0605,-0.0606,-0.0602,-0.06,-0.06,-0.0599,-0.064,-0.0606,-0.0606,-0.0606,-0.0607,-0.0607,-0.0633,-0.0626,-0.0626,-0.062,-0.0619,-0.0616,-0.061,-0.0611,-0.0605,-0.0599,-0.0603,-0.0594,-0.0591,-0.0583,-0.0581,-0.0573,-0.0578,-0.0574,-0.0572,-0.0571,-0.0569,-0.0602,-0.0572,-0.0572,-0.0572,-0.0573,-0.0573,0,-0.0599,-0.06,-0.0594,-0.0591,-0.0586,-0.0594,-0.0591,-0.0586,-0.0579,-0.0577,-0.0571,-0.0563,-0.0556,-0.0556,-0.0549,-0.0543,-0.0545,-0.0541,-0.0541,-0.054,-0.0565,-0.0569,-0.0539,-0.0539,-0.0539,-0.0539,-0.0539,-0.0539,-0.058,-0.0569,-0.0572,-0.056,-0.0561,-0.0553,-0.0551,-0.0549,-0.0547,-0.0538,-0.0533,-0.0533,-0.0532,-0.0526,-0.052,-0.052,-0.0517,-0.0511,-0.0512,-0.0535,-0.0539,-0.0542,-0.0545,-0.0511,-0.0511,-0.0488,-0.0487,-0.0487]}]]